Eagle River, WI

1:46 AM CDT on April 22, 2018 (GMT -0500)
Eagle River Union

Weather History for KEGV - March, 2014

Change the Weather History Date:

Monday, March 24, 2014

  Actual Average Record
Temperature  
Mean Temperature 6 °F -  
Max Temperature 25 °F 42 °F 64 °F (2007)
Min Temperature -14 °F 18 °F -14 °F (2014)
Degree Days  
Heating Degree Days 60    
Moisture  
Dew Point -3 °F    
Average Humidity 63    
Maximum Humidity 85    
Minimum Humidity 34    
Precipitation  
Precipitation 0.00 in - - ()
Sea Level Pressure  
Sea Level Pressure 30.06 in    
Wind  
Wind Speed 4 mph (West)    
Max Wind Speed 18 mph    
Max Gust Speed 29 mph    
Visibility 10 miles    
Events      
Averages and records for this station are not official NWS values.
T = Trace of Precipitation, MM = Missing Value Source: NWS Daily Summary

Daily Weather History Graph

Daily Weather History Graph

Search for Another Location

Airport or City:

Astronomy

Mar. 24, 2014 Rise Set
Actual Time 6:52 AM CDT 7:15 PM CDT
Civil Twilight 6:22 AM CDT 7:44 PM CDT
Nautical Twilight 5:47 AM CDT 8:20 PM CDT
Astronomical Twilight 5:10 AM CDT 8:56 PM CDT
Moon 2:40 AM CDT (3/24) 12:23 PM CDT (3/24)
Length of Visible Light 13h 22m
Length of Day
12h 22m
Last Quarter, 43% of the Moon is Illuminated
Mar 24
Last Quarter
Mar 30
New
Apr 7
First Quarter
Apr 15
Full
Apr 22
Last Quarter

Hourly Weather History & Observations

Time (CDT) Temp. Windchill Dew Point Humidity Pressure Visibility Wind Dir Wind Speed Gust Speed Precip Events Conditions
12:15 AM -6.0 °F - -10.7 °F 80% 30.24 in 10.0 mi Calm Calm - N/A   Clear
12:35 AM -6.7 °F - -11.4 °F 80% 30.24 in 10.0 mi Calm Calm - N/A   Clear
12:55 AM -7.1 °F - -12.1 °F 79% 30.23 in 10.0 mi Calm Calm - N/A   Clear
1:15 AM -8.1 °F - -13.7 °F 77% 30.23 in 10.0 mi Calm Calm - N/A   Clear
1:35 AM -8.5 °F - -13.9 °F 77% 30.24 in 10.0 mi Calm Calm - N/A   Clear
1:55 AM -8.0 °F - -13.5 °F 77% 30.23 in 10.0 mi Calm Calm - N/A   Mostly Cloudy
2:15 AM -7.8 °F - -13.4 °F 77% 30.22 in 10.0 mi Calm Calm - N/A   Scattered Clouds
2:35 AM -9.4 °F - -15.3 °F 75% 30.22 in 10.0 mi Calm Calm - N/A   Clear
2:55 AM -8.9 °F - -14.6 °F 76% 30.22 in 10.0 mi Calm Calm - N/A   Clear
3:15 AM -9.4 °F - -15.0 °F 76% 30.20 in 10.0 mi Calm Calm - N/A   Clear
3:35 AM -8.5 °F - -14.1 °F 77% 30.20 in 10.0 mi Calm Calm - N/A   Clear
3:55 AM -9.6 °F - -15.3 °F 76% 30.19 in 10.0 mi Calm Calm - N/A   Clear
4:15 AM -10.8 °F - -17.0 °F 74% 30.19 in 10.0 mi Calm Calm - N/A   Clear
4:35 AM -11.0 °F - -17.0 °F 75% 30.18 in 10.0 mi Calm Calm - N/A   Clear
4:55 AM -10.8 °F - -16.8 °F 75% 30.17 in 10.0 mi Calm Calm - N/A   Clear
5:15 AM -11.4 °F - -17.3 °F 75% 30.17 in 10.0 mi Calm Calm - N/A   Clear
5:35 AM -12.3 °F - -18.0 °F 76% 30.16 in 10.0 mi Calm Calm - N/A   Clear
5:55 AM -13.7 °F - -20.4 °F 72% 30.16 in 10.0 mi Calm Calm - N/A   Clear
6:15 AM -13.7 °F - -19.5 °F 75% 30.16 in 10.0 mi Calm Calm - N/A   Clear
6:35 AM -13.2 °F - -19.1 °F 75% 30.15 in 10.0 mi Calm Calm - N/A   Clear
6:55 AM -14.4 °F - -20.7 °F 73% 30.16 in 10.0 mi Calm Calm - N/A   Clear
7:15 AM -13.5 °F - -19.5 °F 75% 30.15 in 10.0 mi Calm Calm - N/A   Clear
7:35 AM -12.6 °F - -18.2 °F 76% 30.15 in 10.0 mi Calm Calm - N/A   Clear
7:55 AM -11.6 °F - -17.7 °F 74% 30.15 in 10.0 mi Calm Calm - N/A   Clear
8:15 AM -5.4 °F - -9.9 °F 81% 30.14 in 10.0 mi Calm Calm - N/A   Clear
8:35 AM 0.5 °F - -4.7 °F 79% 30.14 in 10.0 mi Calm Calm - N/A   Clear
8:55 AM 3.7 °F -8.4 °F -1.8 °F 78% 30.14 in 10.0 mi WSW 6.9 mph - N/A   Clear
9:15 AM 8.8 °F -4.4 °F 0.7 °F 70% 30.14 in 10.0 mi WNW 9.2 mph - N/A   Clear
9:35 AM 10.9 °F -1.8 °F -0.0 °F 61% 30.14 in 10.0 mi West 9.2 mph - N/A   Clear
9:55 AM 12.9 °F -0.9 °F 0.7 °F 58% 30.13 in 10.0 mi West 11.5 mph - N/A   Scattered Clouds
10:15 AM 13.6 °F 1.6 °F 1.8 °F 59% 30.13 in 10.0 mi West 9.2 mph 18.4 mph N/A   Mostly Cloudy
10:35 AM 14.9 °F 0.9 °F 2.7 °F 58% 30.12 in 10.0 mi West 12.7 mph - N/A   Overcast
10:55 AM 16.3 °F 0.5 °F 3.7 °F 58% 30.11 in 10.0 mi WSW 17.3 mph 21.9 mph N/A   Mostly Cloudy
11:15 AM 17.1 °F 1.0 °F 3.6 °F 56% 30.10 in 10.0 mi WSW 18.4 mph 25.3 mph N/A   Mostly Cloudy
11:35 AM 18.0 °F 2.6 °F 2.8 °F 52% 30.09 in 10.0 mi West 17.3 mph 25.3 mph N/A   Mostly Cloudy
11:55 AM 18.9 °F 6.5 °F 1.4 °F 47% 30.09 in 10.0 mi WNW 11.5 mph 20.7 mph N/A   Scattered Clouds
12:15 PM 20.3 °F 5.7 °F 0.1 °F 41% 30.08 in 10.0 mi West 17.3 mph 23.0 mph N/A   Clear
12:35 PM 20.8 °F 5.9 °F -0.0 °F 40% 30.07 in 10.0 mi WNW 18.4 mph 24.2 mph N/A   Scattered Clouds
12:55 PM 21.2 °F 8.3 °F 0.1 °F 40% 30.06 in 10.0 mi West 13.8 mph 20.7 mph N/A   Clear
1:15 PM 21.9 °F 8.7 °F -0.6 °F 38% 30.05 in 10.0 mi WNW 15.0 mph 21.9 mph N/A   Scattered Clouds
1:35 PM 22.8 °F 9.9 °F 0.5 °F 38% 30.04 in 10.0 mi West 15.0 mph 20.7 mph N/A   Clear
1:50 PM 23.4 °F 9.2 °F -1.3 °F 34% 30.03 in 10.0 mi West 18.4 mph 25.3 mph N/A   Clear
2:15 PM 23.2 °F 9.0 °F -0.4 °F 36% 30.01 in 10.0 mi West 18.4 mph 28.8 mph N/A   Scattered Clouds
2:35 PM 23.2 °F 9.4 °F 1.6 °F 39% 30.01 in 10.0 mi West 17.3 mph 26.5 mph N/A   Scattered Clouds
2:55 PM 23.2 °F 9.8 °F 2.1 °F 40% 30.00 in 10.0 mi WNW 16.1 mph 25.3 mph N/A   Scattered Clouds
3:15 PM 25.2 °F 14.4 °F 2.8 °F 38% 29.98 in 10.0 mi WNW 11.5 mph - N/A   Mostly Cloudy
3:35 PM 23.9 °F 12.9 °F 2.8 °F 40% 29.97 in 10.0 mi West 11.5 mph 20.7 mph N/A   Mostly Cloudy
3:55 PM 23.5 °F 11.8 °F 3.4 °F 42% 29.96 in 10.0 mi West 12.7 mph 21.9 mph N/A   Mostly Cloudy
4:15 PM 23.5 °F 13.0 °F 4.3 °F 44% 29.96 in 10.0 mi West 10.4 mph 23.0 mph N/A   Overcast
4:35 PM 24.6 °F 13.8 °F 4.3 °F 42% 29.95 in 10.0 mi WNW 11.5 mph 20.7 mph N/A   Overcast
4:55 PM 25.2 °F 12.4 °F 4.8 °F 42% 29.95 in 10.0 mi West 16.1 mph 23.0 mph N/A   Overcast
5:15 PM 23.2 °F 9.8 °F 7.3 °F 51% 29.95 in 10.0 mi WNW 16.1 mph 21.9 mph N/A   Overcast
5:35 PM 22.8 °F 10.9 °F 7.0 °F 51% 29.94 in 7.0 mi WNW 12.7 mph - N/A   Overcast
5:55 PM 22.8 °F 9.9 °F 6.6 °F 50% 29.94 in 10.0 mi WNW 15.0 mph 23.0 mph N/A   Scattered Clouds
6:15 PM 22.5 °F 11.7 °F 4.5 °F 46% 29.94 in 10.0 mi WNW 10.4 mph 16.1 mph N/A   Scattered Clouds
6:35 PM 22.1 °F 12.0 °F 5.2 °F 48% 29.94 in 10.0 mi West 9.2 mph - N/A   Mostly Cloudy
6:55 PM 21.4 °F 13.8 °F 6.1 °F 52% 29.93 in 10.0 mi WNW 5.8 mph - N/A   Overcast
7:15 PM 20.7 °F 13.0 °F 5.2 °F 51% 29.93 in 10.0 mi WNW 5.8 mph - N/A   Scattered Clouds
7:35 PM 20.5 °F 10.8 °F 4.8 °F 51% 29.93 in 10.0 mi West 8.1 mph - N/A   Mostly Cloudy
7:55 PM 20.5 °F 11.7 °F 6.8 °F 56% 29.93 in 10.0 mi West 6.9 mph - N/A   Mostly Cloudy
8:15 PM 18.5 °F 13.3 °F 6.6 °F 60% 29.93 in 10.0 mi NW 3.5 mph - N/A   Scattered Clouds
8:35 PM 18.0 °F 11.1 °F 7.9 °F 65% 29.93 in 10.0 mi WNW 4.6 mph - N/A   Scattered Clouds
8:55 PM 17.4 °F 10.4 °F 8.2 °F 67% 29.92 in 10.0 mi West 4.6 mph - N/A   Scattered Clouds
9:15 PM 16.9 °F 8.5 °F 8.4 °F 69% 29.92 in 10.0 mi West 5.8 mph - N/A   Scattered Clouds
9:35 PM 16.5 °F 9.4 °F 8.4 °F 70% 29.92 in 10.0 mi West 4.6 mph - N/A   Clear
9:55 PM 13.6 °F 7.7 °F 6.1 °F 72% 29.91 in 10.0 mi West 3.5 mph - N/A   Clear
10:15 PM 10.6 °F 4.3 °F 5.7 °F 81% 29.91 in 10.0 mi West 3.5 mph - N/A   Clear
10:35 PM 9.0 °F 2.4 °F 4.1 °F 81% 29.91 in 10.0 mi WSW 3.5 mph - N/A   Clear
10:55 PM 5.9 °F -3.0 °F 2.1 °F 84% 29.91 in 10.0 mi WSW 4.6 mph - N/A   Scattered Clouds
11:15 PM 7.5 °F -5.0 °F 3.9 °F 85% 29.90 in 10.0 mi West 8.1 mph - N/A   Scattered Clouds
11:35 PM 13.8 °F 2.7 °F 6.6 °F 73% 29.90 in 10.0 mi West 8.1 mph - N/A   Scattered Clouds
11:55 PM 14.7 °F 4.8 °F 5.7 °F 68% 29.90 in 10.0 mi West 6.9 mph - N/A   Mostly Cloudy